This demonstration page uses our WeatherBlox Daily Observations layout. Learn more.

39.29038, -76.61219

Hourly Observations for July 9, 2016

Temp ( °F °C ) Dew Point ( °F °C ) Humidity (%) Winds ( mph kmh ) Pressure ( in mb ) Visibility ( mi km ) Precip ( " mm )
12:54 am 00:54 undefined 79 26.1 74 23.3 85 85 undefined N/A 29.79 1009 N/A 0 0
1:54 am 01:54 undefined 79 26.1 74 23.3 85 85 undefined N/A 29.8 1009 N/A 0 0
2:54 am 02:54 undefined 78 25.6 74 23.3 87 87 undefined N/A 29.79 1009 N/A 0 0
3:54 am 03:54 undefined 78 25.6 73 22.8 85 85 undefined N/A 29.78 1008 N/A 0 0
4:54 am 04:54 undefined 78 25.6 72 22.2 82 82 undefined N/A 29.78 1008 N/A 0 0
5:54 am 05:54 undefined 78 25.6 73 22.8 85 85 undefined N/A 29.79 1009 N/A 0 0
6:54 am 06:54 undefined 79 26.1 70 21.1 74 74 undefined N/A 29.8 1009 N/A 0 0
7:54 am 07:54 undefined 80 26.7 69 20.6 69 69 undefined N/A 29.82 1010 N/A 0 0
8:54 am 08:54 undefined 81 27.2 68 20 65 65 undefined N/A 29.82 1010 N/A 0 0
9:54 am 09:54 undefined 83 28.3 69 20.6 63 63 undefined N/A 29.81 1010 N/A 0 0
10:54 am 10:54 undefined 84 28.9 69 20.6 61 61 undefined N/A 29.81 1009 N/A 0 0
11:54 am 11:54 undefined 86 30 69 20.6 57 57 undefined N/A 29.8 1009 N/A 0 0
12:54 pm 12:54 undefined 88 31.1 70 21.1 55 55 undefined N/A 29.79 1009 N/A 0 0
1:54 pm 13:54 undefined 91 32.8 69 20.6 49 49 undefined N/A 29.78 1008 N/A 0 0
2:54 pm 14:54 undefined 92 33.3 67 19.4 44 44 undefined N/A 29.77 1008 N/A 0 0
3:54 pm 15:54 undefined 92 33.3 66 18.9 43 43 undefined N/A 29.77 1008 N/A 0 0
4:54 pm 16:54 undefined 92 33.3 63 17.2 38 38 undefined N/A 29.76 1008 N/A 0 0
5:54 pm 17:54 undefined 92 33.3 62 16.7 37 37 undefined N/A 29.76 1008 N/A 0 0
6:54 pm 18:54 undefined 90 32.2 61 16.1 38 38 undefined N/A 29.76 1008 N/A 0 0
7:54 pm 19:54 undefined 89 31.7 61 16.1 39 39 undefined N/A 29.77 1008 N/A 0 0
8:54 pm 20:54 undefined 86 30 61 16.1 43 43 undefined N/A 29.78 1009 N/A 0 0
9:54 pm 21:54 undefined 84 28.9 59 15 43 43 undefined N/A 29.8 1009 N/A 0 0
10:54 pm 22:54 undefined 83 28.3 59 15 44 44 undefined N/A 29.82 1010 N/A 0 0
11:54 pm 23:54 undefined 82 27.8 59 15 46 46 undefined N/A 29.84 1011 N/A 0 0

Powered by AerisWeather